Weather History for FBSK - November, 2012

Change the Weather History Date:

Sunday, November 4, 2012

  Actual Average Record
Temperature  
Mean Temperature 76 °F -  
Max Temperature 90 °F 85 °F 104 °F (2005)
Min Temperature 61 °F 62 °F 51 °F (2000)
Cooling Degree Days 10    
Growing Degree Days 26 (Base 50)    
Moisture  
Dew Point 36 °F    
Average Humidity 25    
Maximum Humidity 48    
Minimum Humidity 5    
Precipitation  
Precipitation 0.00 in - - ()
Sea Level Pressure  
Sea Level Pressure 30.08 in    
Wind  
Wind Speed 7 mph ()    
Max Wind Speed 12 mph    
Max Gust Speed -    
Visibility 6.1 miles    
Events      
Averages and records for this station are not official NWS values.
T = Trace of Precipitation, MM = Missing Value Source: Averaged Metar Reports

Daily Weather History Graph

Daily Weather History Graph

Search for Another Location

Airport or City:

Trip Planner

Search our weather history database for the weather conditions in past years. The results will help you decide how hot, cold, wet, or windy it might be!

Date:

Astronomy

Nov. 04, 2012 Rise Set
Actual Time 5:26 AM CAT 6:33 PM CAT
Civil Twilight 5:02 AM CAT 6:57 PM CAT
Nautical Twilight 4:34 AM CAT 7:25 PM CAT
Astronomical Twilight 4:05 AM CAT 7:54 PM CAT
Moon 11:10 PM CAT (11/4) 9:33 AM CAT (11/4)
Length of Visible Light 13h 54m
Length of Day
13h 06m
Waning Gibbous, 74% of the Moon is Illuminated
Nov 4
Waning Gibbous
Nov 7
Last Quarter
Nov 14
New
Nov 20
First Quarter
Nov 28
Full

Hourly Weather History & Observations

Time (CAT) Temp. Dew Point Humidity Pressure Visibility Wind Dir Wind Speed Gust Speed Precip Events Conditions
12:00 AM 68.0 °F 39.2 °F 35% 30.09 in - NE 10.4 mph - N/A   Clear
1:00 AM 68.0 °F 39.2 °F 35% 30.12 in - NE 8.1 mph - N/A   Clear
2:00 AM 64 °F 40 °F 30%  in 6 mi ENE 5.8 mph - -  
2:00 AM 64.4 °F 41.0 °F 42% 30.09 in - ENE 5.8 mph - N/A   Clear
4:00 AM 62.6 °F 41.0 °F 45% 30.12 in - SE 5.8 mph - N/A   Clear
5:00 AM 60.8 °F 41.0 °F 48% 30.12 in - ESE 6.9 mph - N/A   Clear
6:00 AM 62.6 °F 41.0 °F 45% 30.12 in - East 4.6 mph - N/A   Clear
7:00 AM 66.2 °F 41.0 °F 40% 30.15 in - ENE 9.2 mph - N/A   Clear
8:00 AM 70 °F 40 °F 23%  in 6 mi NE 11.5 mph - -   Scattered Clouds
8:00 AM 69.8 °F 41.0 °F 35% 30.15 in - NE 11.5 mph - N/A   Clear
9:00 AM 75.2 °F 39.2 °F 27% 30.15 in - NE 10.4 mph - N/A   Clear
10:00 AM 77.0 °F 39.2 °F 26% 30.15 in - NNE 9.2 mph - N/A   Clear
11:00 AM 82.4 °F 37.4 °F 20% 30.12 in - NNW 8.1 mph - N/A   Clear
12:00 PM 86.0 °F 35.6 °F 17% 30.09 in - North 10.4 mph - N/A   Clear
1:00 PM 87.8 °F 32.0 °F 14% 30.06 in - NNW 9.2 mph - N/A   Clear
2:00 PM 89 °F 29 °F 5%  in 6 mi WNW 5.8 mph - -  
2:00 PM 89.6 °F 28.4 °F 11% 30.04 in - Variable 5.8 mph - N/A   Clear
3:00 PM 89.6 °F 30.2 °F 12% 30.01 in 6.2 mi Variable 5.8 mph - N/A   Partly Cloudy
4:00 PM 89.6 °F 28.4 °F 11% 30.01 in 6.2 mi Variable 5.8 mph - N/A   Partly Cloudy
6:00 PM 87.8 °F 30.2 °F 13% 30.01 in 6.2 mi NW 3.5 mph - N/A   Partly Cloudy
7:00 PM 84.2 °F 32.0 °F 15% 30.01 in - North 4.6 mph - N/A   Clear
8:00 PM 79 °F 33 °F 10%  in 6 mi NNE 5.8 mph - -   Clear
8:00 PM 80.6 °F 33.8 °F 18% 30.04 in - NNE 5.8 mph - N/A   Clear
9:00 PM 77.0 °F 33.8 °F 21% 30.04 in - NNE 8.1 mph - N/A   Clear
10:00 PM 77.0 °F 33.8 °F 21% 30.04 in - NNE 8.1 mph - N/A   Clear
11:00 PM 75.2 °F 33.8 °F 22% 30.04 in - NNE 5.8 mph - N/A   Clear